Regional Weather Roundup
Issued by NWS

Home | Current Version | Previous Version | Text Only | Print | Product List | Glossary On
Versions: 1 2 3 4 5 6 7 8 9 10 11 12 13 14 15 16 17 18 19 20 21 22 23 24 25 26 27 28 29 30 31 32 33 34 35 36 37 38 39 40 41 42 43 44 45 46 47 48 49 50
000
ASUS43 KBIS 011410
RWRND

NORTH DAKOTA REGIONAL WEATHER ROUNDUP
NATIONAL WEATHER SERVICE BISMARCK ND
900 AM CDT SAT OCT 01 2016

NOTE: "FAIR" INDICATES FEW OR NO CLOUDS BELOW 12,000 FEET WITH NO
SIGNIFICANT WEATHER AND/OR OBSTRUCTIONS TO VISIBILITY.


NDZ001>003-009>011-017-011500-
NORTHWEST NORTH DAKOTA

CITY           SKY/WX    TMP DP  RH WIND       PRES   REMARKS
WILLISTON      CLEAR     50  46  86 CALM      29.98S
MINOT          SUNNY     50  47  89 CALM      30.01S
MINOT AFB      SUNNY     49  47  92 SE8       30.00F
$$

NDZ018>021-031>035-040>046-011500-
SOUTHWEST NORTH DAKOTA

CITY           SKY/WX    TMP DP  RH WIND       PRES   REMARKS
BISMARCK       SUNNY     55  46  71 E9        30.03R
DICKINSON      SUNNY     50  45  83 SE3       29.97S
GARRISON         N/A     53  48  83 SE7       30.00S
HETTINGER ARPT SUNNY     50  45  83 CALM      30.01R
$$

NDZ004>008-012>016-024-026-027-054-011500-
NORTHEAST NORTH DAKOTA

CITY           SKY/WX    TMP DP  RH WIND       PRES   REMARKS
GRAND FORKS    CLOUDY    52  48  86 SE9       30.15F
GRND FRKS AFB  CLOUDY    51  49  93 S7        30.15R
DEVILS LAKE    CLOUDY    56  49  77 SE12      30.10S
$$

NDZ022-023-025-028>030-036>039-047>053-011500-
SOUTHEAST NORTH DAKOTA

CITY           SKY/WX    TMP DP  RH WIND       PRES   REMARKS
FARGO          MOSUNNY   57  50  77 SE10      30.15S
JAMESTOWN      CLOUDY    52  48  86 SE13      30.10R
$$




USA.gov is the U.S. government's official web portal to all federal, state and local government web resources and services.